User: anonymous   Login
Location: Unspecified
(0.0000°N, 0.0000°E)
Time: 01:25:23
(UTC+00:00)
Language:

UNISAT 6 - Orbit

View from above orbital plane
View from above orbital plane
View from above satellite
View from above satellite

Ground track
Ground track

The orbit data is extracted from the following two-line orbital elements,

1 40012U 14033C   17266.59055509 +.00000238 +00000-0 +43322-4 0  9999
2 40012 097.8417 147.1598 0058232 339.0287 020.8534 14.73674424175436
Epoch (UTC): 23 September 2017 14:10:23
Eccentricity: 0.0058232
inclination: 97.8417°
perigee height: 608 km
apogee height: 690 km
right ascension of ascending node: 147.1598°
argument of perigee: 339.0287°
revolutions per day: 14.73674424
mean anomaly at epoch: 20.8534°
orbit number at epoch: 17543

The dashed part of the orbit path shows where the satellite is in the earth's shadow,  

DLR